• In Germany
  • List of Countries
  • For 7 days
  • Water Temperature
  • Satellite Maps
  • Weather Map
  • Weather Widgets
  • user-avatar
    Login

    Hourly Weather Newcastle

    Today, 22 July, Saturday

    Time Temperature Precipitation Wind Pressure Humidity
    00:00 +6°C° 0 mm 4 mps 767 mmHg 86%
    01:00 +6°C° 0 mm 4 mps 767 mmHg 87%
    02:00 +5°C° 0 mm 4 mps 767 mmHg 87%
    03:00 +5°C° 0 mm 3 mps 767 mmHg 87%
    04:00 +5°C° 0 mm 4 mps 766 mmHg 89%
    05:00 +5°C° 0 mm 3 mps 766 mmHg 89%
    06:00 +4°C° 0 mm 3 mps 767 mmHg 89%
    07:00 +4°C° 0 mm 3 mps 767 mmHg 89%
    08:00 +8°C° 0 mm 3 mps 767 mmHg 77%
    09:00 +11°C° 0 mm 3 mps 767 mmHg 66%
    10:00 +13°C° 0 mm 4 mps 767 mmHg 55%
    11:00 +14°C° 0 mm 4 mps 766 mmHg 49%
    12:00 +17°C° 0 mm 3 mps 765 mmHg 43%
    13:00 +19°C° 0 mm 3 mps 764 mmHg 38%
    14:00 +18°C° 0 mm 3 mps 764 mmHg 41%
    15:00 +18°C° 0 mm 3 mps 764 mmHg 43%
    16:00 +18°C° 0 mm 3 mps 764 mmHg 46%
    17:00 +16°C° 0 mm 3 mps 764 mmHg 51%
    18:00 +13°C° 0 mm 3 mps 764 mmHg 55%
    19:00 +11°C° 0 mm 4 mps 764 mmHg 59%
    20:00 +10°C° 0 mm 4 mps 764 mmHg 61%
    21:00 +8°C° 0 mm 4 mps 764 mmHg 63%
    22:00 +7°C° 0 mm 4 mps 765 mmHg 65%
    23:00 +7°C° 0 mm 4 mps 764 mmHg 65%

    Tomorrow, 23 July, Sunday

    Time Temperature Precipitation Wind Pressure Humidity
    00:00 +7°C° 0 mm 4 mps 764 mmHg 65%
    01:00 +7°C° 0 mm 4 mps 764 mmHg 65%
    02:00 +7°C° 0 mm 5 mps 764 mmHg 64%
    03:00 +7°C° 0 mm 5 mps 764 mmHg 63%
    04:00 +7°C° 0 mm 5 mps 764 mmHg 62%
    05:00 +7°C° 0 mm 5 mps 764 mmHg 61%
    06:00 +7°C° 0 mm 5 mps 764 mmHg 60%
    07:00 +7°C° 0 mm 6 mps 764 mmHg 59%
    08:00 +9°C° 0 mm 6 mps 764 mmHg 52%
    09:00 +11°C° 0 mm 6 mps 764 mmHg 46%
    10:00 +14°C° 0 mm 6 mps 764 mmHg 40%
    11:00 +16°C° 0 mm 6 mps 763 mmHg 37%
    12:00 +17°C° 0 mm 6 mps 762 mmHg 34%
    13:00 +20°C° 0 mm 5 mps 761 mmHg 31%
    14:00 +20°C° 0 mm 5 mps 761 mmHg 34%
    15:00 +19°C° 0 mm 5 mps 761 mmHg 36%
    16:00 +19°C° 0 mm 5 mps 761 mmHg 38%
    17:00 +17°C° 0 mm 5 mps 761 mmHg 41%
    18:00 +15°C° 0 mm 5 mps 762 mmHg 44%
    19:00 +13°C° 0 mm 6 mps 762 mmHg 47%
    20:00 +13°C° 0 mm 6 mps 762 mmHg 47%
    21:00 +11°C° 0 mm 6 mps 763 mmHg 47%
    22:00 +11°C° 0 mm 6 mps 763 mmHg 47%
    23:00 +11°C° 0 mm 6 mps 763 mmHg 47%

    Day after tomorrow, 24 July, Monday

    Time Temperature Precipitation Wind Pressure Humidity
    00:00 +10°C° 0 mm 6 mps 763 mmHg 48%
    01:00 +10°C° 0 mm 6 mps 763 mmHg 48%
    02:00 +10°C° 0 mm 6 mps 763 mmHg 48%
    03:00 +9°C° 0 mm 6 mps 762 mmHg 49%
    04:00 +9°C° 0 mm 5 mps 762 mmHg 50%
    05:00 +9°C° 0 mm 5 mps 763 mmHg 51%
    06:00 +9°C° 0 mm 5 mps 763 mmHg 52%
    07:00 +9°C° 0 mm 5 mps 764 mmHg 53%
    08:00 +12°C° 0 mm 5 mps 764 mmHg 52%
    09:00 +14°C° 0 mm 5 mps 765 mmHg 51%
    10:00 +15°C° 0 mm 5 mps 765 mmHg 49%
    11:00 +17°C° 0 mm 5 mps 764 mmHg 46%
    12:00 +19°C° 0 mm 5 mps 764 mmHg 43%
    13:00 +20°C° 0 mm 4 mps 763 mmHg 41%
    14:00 +20°C° 0 mm 3 mps 763 mmHg 43%
    15:00 +20°C° 0 mm 3 mps 763 mmHg 45%
    16:00 +20°C° 0 mm 2 mps 763 mmHg 47%
    17:00 +18°C° 0 mm 2 mps 764 mmHg 51%
    18:00 +16°C° 0 mm 2 mps 764 mmHg 55%
    19:00 +14°C° 0 mm 2 mps 765 mmHg 59%
    20:00 +12°C° 0 mm 3 mps 765 mmHg 62%
    21:00 +12°C° 0 mm 4 mps 766 mmHg 64%
    22:00 +11°C° 0 mm 4 mps 766 mmHg 67%
    23:00 +10°C° 0 mm 4 mps 766 mmHg 70%

    25 July, Tuesday

    Time Temperature Precipitation Wind Pressure Humidity
    00:00 +10°C° 0 mm 4 mps 766 mmHg 74%
    01:00 +8°C° 0 mm 4 mps 766 mmHg 78%
    02:00 +7°C° 0 mm 4 mps 766 mmHg 79%
    03:00 +7°C° 0 mm 4 mps 766 mmHg 81%
    04:00 +7°C° 0 mm 4 mps 766 mmHg 83%
    05:00 +6°C° 0 mm 4 mps 766 mmHg 84%
    06:00 +6°C° 0 mm 4 mps 766 mmHg 84%
    07:00 +6°C° 0 mm 4 mps 767 mmHg 84%
    08:00 +10°C° 0 mm 3 mps 767 mmHg 75%
    09:00 +12°C° 0 mm 3 mps 767 mmHg 65%
    10:00 +14°C° 0 mm 3 mps 767 mmHg 56%
    11:00 +17°C° 0 mm 3 mps 767 mmHg 50%
    12:00 +18°C° 0 mm 3 mps 766 mmHg 45%
    13:00 +19°C° 0 mm 2 mps 765 mmHg 40%
    14:00 +19°C° 0 mm 2 mps 765 mmHg 42%
    15:00 +19°C° 0 mm 2 mps 765 mmHg 44%
    16:00 +19°C° 0 mm 2 mps 764 mmHg 47%
    17:00 +17°C° 0 mm 2 mps 765 mmHg 52%
    18:00 +14°C° 0 mm 3 mps 765 mmHg 57%
    19:00 +12°C° 0 mm 3 mps 765 mmHg 62%
    20:00 +12°C° 0 mm 4 mps 765 mmHg 62%
    21:00 +12°C° 0 mm 4 mps 765 mmHg 62%
    22:00 +10°C° 0 mm 5 mps 766 mmHg 62%
    23:00 +10°C° 0 mm 5 mps 765 mmHg 61%

    26 July, Wednesday

    Time Temperature Precipitation Wind Pressure Humidity
    00:00 +10°C° 0 mm 5 mps 765 mmHg 61%
    01:00 +10°C° 0 mm 5 mps 764 mmHg 60%
    02:00 +11°C° 0 mm 6 mps 764 mmHg 59%
    03:00 +11°C° 0 mm 6 mps 763 mmHg 57%
    04:00 +11°C° 0 mm 6 mps 763 mmHg 56%
    05:00 +11°C° 0 mm 6 mps 763 mmHg 55%
    06:00 +11°C° 0 mm 7 mps 763 mmHg 55%
    07:00 +12°C° 0 mm 7 mps 763 mmHg 54%
    08:00 +15°C° 0 mm 7 mps 763 mmHg 50%
    09:00 +17°C° 0 mm 7 mps 763 mmHg 47%
    10:00 +18°C° 0 mm 8 mps 763 mmHg 43%
    11:00 +21°C° 0 mm 7 mps 762 mmHg 41%
    12:00 +22°C° 0 mm 7 mps 761 mmHg 38%
    13:00 +23°C° 0 mm 7 mps 761 mmHg 36%
    14:00 +22°C° 0 mm 7 mps 760 mmHg 41%
    15:00 +20°C° 0 mm 7 mps 760 mmHg 47%
    16:00 +18°C° 0 mm 7 mps 760 mmHg 52%
    17:00 +17°C° 0 mm 7 mps 761 mmHg 58%
    18:00 +15°C° 0 mm 7 mps 762 mmHg 63%
    19:00 +14°C° 0 mm 7 mps 762 mmHg 69%
    20:00 +12°C° 0 mm 7 mps 763 mmHg 70%
    21:00 +11°C° 0 mm 7 mps 763 mmHg 71%
    22:00 +11°C° 0 mm 6 mps 763 mmHg 72%
    23:00 +10°C° 0 mm 6 mps 764 mmHg 70%

    27 July, Thursday

    Time Temperature Precipitation Wind Pressure Humidity
    00:00 +10°C° 0 mm 6 mps 764 mmHg 69%
    01:00 +9°C° 0 mm 6 mps 764 mmHg 67%
    02:00 +9°C° 0 mm 6 mps 764 mmHg 69%
    03:00 +8°C° 0 mm 6 mps 764 mmHg 72%
    04:00 +8°C° 0 mm 6 mps 765 mmHg 75%
    05:00 +7°C° 0 mm 6 mps 765 mmHg 77%
    06:00 +7°C° 0 mm 5 mps 766 mmHg 79%
    07:00 +6°C° 0 mm 5 mps 767 mmHg 81%
    08:00 +8°C° 0 mm 6 mps 767 mmHg 72%
    09:00 +11°C° 0 mm 6 mps 767 mmHg 63%
    10:00 +14°C° 0 mm 6 mps 768 mmHg 55%
    11:00 +14°C° 0 mm 6 mps 767 mmHg 51%
    12:00 +15°C° 0 mm 6 mps 767 mmHg 48%
    13:00 +16°C° 0 mm 5 mps 767 mmHg 44%
    14:00 +16°C° 0 mm 5 mps 767 mmHg 47%
    15:00 +15°C° 0 mm 5 mps 767 mmHg 49%
    16:00 +15°C° 0 mm 5 mps 767 mmHg 52%
    17:00 +13°C° 0.1 mm 4 mps 768 mmHg 61%
    18:00 +11°C° 0.1 mm 4 mps 768 mmHg 71%
    19:00 +9°C° 0.1 mm 3 mps 769 mmHg 80%
    20:00 +9°C° 0 mm 3 mps 769 mmHg 83%
    21:00 +8°C° 0 mm 3 mps 769 mmHg 86%
    22:00 +8°C° 0 mm 2 mps 770 mmHg 89%
    23:00 +8°C° 0 mm 2 mps 770 mmHg 91%
    Show more